Shelton, WA
on Wednesday, December 26, 2012

Wednesday
Previous Day Next Day
Daily Summary
 ActualAverage (KOLM)Record (KOLM)
Temperature
Mean Temperature °F 38°F  
Max Temperature 42°F 44°F 62°F (1980)
Min Temperature 33°F 33°F 17°F (1948)
Degree Days
Heating Degree Days 28 27  
Month to date heating degree days 691  
Since 1 July heating degree days 2136  
Cooling Degree Days 0 0  
Month to date cooling degree days 0  
Year to date cooling degree days 106  
Moisture
Dew Point 37°F   
Average Humidity 97    
Maximum Humidity 100    
Minimum Humidity 87    
Precipitation
Precipitation 0.18 in 0.24 in 2.45 in (1980)
Month to date precipitation 6.33  
Year to date precipitation 48.87  
Wind
Wind Speed 3 mph   
Max Wind Speed 17 mph   
Max Gust Speed mph   
Visibility 8 miles   
Events Rain   

Key: T is trace of precipitation, MM is missing value
Source: NWS Daily Summary
Time(PST)TemperatureDew PointHumidity Pressure Visibility Wind DirectionWind SpeedGust SpeedPrecipitationEvents Conditions
12:07 AM 35.6°F 35.6°F 100% 29.68 in 7.0 miles Calm Calm - N/A   Overcast
12:53 AM 34.0°F 34.0°F 100% 29.69 in 8.0 miles Calm Calm - N/A   Overcast
1:53 AM 34.0°F 34.0°F 100% 29.69 in 10.0 miles Calm Calm - N/A   Overcast
2:37 AM 33.8°F 33.8°F 100% 29.68 in 10.0 miles Calm Calm - 0.00 in Rain Light Rain
2:50 AM 33.8°F 33.8°F 100% 29.68 in 10.0 miles Calm Calm - 0.00 in Rain Light Rain
2:53 AM 33.1°F 33.1°F 100% 29.70 in 10.0 miles Calm Calm - 0.01 in Rain Light Rain
3:32 AM 33.8°F 33.8°F 100% 29.68 in 10.0 miles Calm Calm - 0.00 in Rain Light Rain
3:45 AM 33.8°F 33.8°F 100% 29.68 in 10.0 miles Calm Calm - 0.01 in   Overcast
3:53 AM 33.1°F 33.1°F 100% 29.70 in 10.0 miles Calm Calm - 0.01 in   Overcast
4:09 AM 33.8°F 33.8°F 100% 29.68 in 10.0 miles Calm Calm - N/A   Overcast
4:36 AM 35.6°F 35.6°F 100% 29.68 in 9.0 miles Calm Calm - N/A   Overcast
4:53 AM 34.0°F 34.0°F 100% 29.70 in 4.0 miles Calm Calm - 0.00 in Rain Light Rain
5:53 AM 34.0°F 34.0°F 100% 29.71 in 7.0 miles Calm Calm - 0.01 in   Overcast
6:53 AM 35.1°F 35.1°F 100% 29.72 in 10.0 miles Calm Calm - N/A   Overcast
7:21 AM 35.6°F 35.6°F 100% 29.71 in 7.0 miles Calm Calm - 0.00 in   Overcast
7:53 AM 34.0°F 34.0°F 100% 29.73 in 9.0 miles Calm Calm - 0.01 in Rain Light Rain
8:44 AM 33.8°F 33.8°F 100% 29.73 in 7.0 miles Calm Calm - 0.01 in Rain Light Rain
8:53 AM 34.0°F 34.0°F 100% 29.75 in 5.0 miles Calm Calm - 0.01 in   Overcast
9:17 AM 33.8°F 33.8°F 100% 29.75 in 4.0 miles Calm Calm - 0.00 in   Overcast
9:53 AM 35.1°F 35.1°F 100% 29.77 in 4.0 miles Calm Calm - 0.01 in Rain Light Rain
10:14 AM 35.6°F 35.6°F 100% 29.76 in 2.5 miles Calm Calm - 0.00 in   Overcast
10:23 AM 35.6°F 35.6°F 100% 29.76 in 3.0 miles Calm Calm - 0.00 in   Overcast
10:53 AM 37.0°F 36.0°F 96% 29.78 in 3.0 miles Calm Calm - 0.00 in   Overcast
11:03 AM 37.4°F 37.4°F 100% 29.76 in 4.0 miles Calm Calm - N/A   Overcast
11:44 AM 37.4°F 37.4°F 100% 29.76 in 1.8 miles Calm Calm - 0.00 in   Overcast
11:53 AM 37.9°F 37.9°F 100% 29.77 in 2.0 miles Calm Calm - 0.00 in   Overcast
12:02 PM 37.4°F 37.4°F 100% 29.76 in 4.0 miles Calm Calm - 0.00 in Rain Light Rain
12:10 PM 37.4°F 37.4°F 100% 29.76 in 2.5 miles Calm Calm - 0.00 in Rain Light Rain
12:30 PM 37.4°F 37.4°F 100% 29.75 in 4.0 miles Calm Calm - 0.00 in Rain Light Rain
12:53 PM 37.0°F 37.0°F 100% 29.77 in 5.0 miles ESE 4.6 mph - 0.01 in   Overcast
1:11 PM 39.2°F 39.2°F 100% 29.75 in 10.0 miles SSE 4.6 mph - 0.00 in Rain Light Rain
1:39 PM 39.2°F 39.2°F 100% 29.75 in 10.0 miles South 8.1 mph - 0.01 in Rain Light Rain
1:53 PM 39.9°F 39.0°F 97% 29.77 in 10.0 miles South 6.9 mph - 0.01 in Rain Light Rain
2:40 PM 39.2°F 39.2°F 100% 29.75 in 10.0 miles SSE 6.9 mph - 0.01 in Rain Light Rain
2:53 PM 39.9°F 39.0°F 97% 29.77 in 10.0 miles South 6.9 mph - 0.01 in Rain Light Rain
3:53 PM 39.9°F 39.0°F 97% 29.78 in 10.0 miles SSW 8.1 mph - 0.04 in Rain Light Rain
4:53 PM 41.0°F 39.0°F 93% 29.79 in 10.0 miles South 6.9 mph - 0.01 in   Overcast
5:15 PM 41.0°F 39.2°F 93% 29.78 in 10.0 miles South 8.1 mph - 0.00 in Rain Light Rain
5:49 PM 42.8°F 39.2°F 87% 29.78 in 10.0 miles SSW 12.7 mph - 0.02 in Rain Light Rain
5:53 PM 42.1°F 39.9°F 92% 29.80 in 10.0 miles South 13.8 mph - 0.02 in Rain Light Rain
6:18 PM 41.0°F 39.2°F 93% 29.78 in 10.0 miles SSW 11.5 mph - 0.02 in Rain Light Rain
6:53 PM 41.0°F 39.0°F 93% 29.81 in 10.0 miles SSW 9.2 mph - 0.02 in   Mostly Cloudy
7:53 PM 41.0°F 39.9°F 96% 29.83 in 10.0 miles SSW 12.7 mph - 0.00 in   Overcast
8:09 PM 41.0°F 39.2°F 93% 29.81 in 10.0 miles SSW 10.4 mph - N/A   Overcast
8:17 PM 41.0°F 39.2°F 93% 29.82 in 10.0 miles SSW 12.7 mph - N/A   Overcast
8:53 PM 41.0°F 39.0°F 93% 29.84 in 10.0 miles SSW 11.5 mph - N/A   Overcast
9:02 PM 42.8°F 39.2°F 87% 29.83 in 10.0 miles SSW 11.5 mph - N/A   Overcast
9:42 PM 41.0°F 39.2°F 93% 29.85 in 10.0 miles SSW 9.2 mph - N/A   Overcast
9:51 PM 41.0°F 39.2°F 93% 29.85 in 10.0 miles SW 9.2 mph - N/A   Overcast
9:53 PM 41.0°F 39.9°F 96% 29.87 in 10.0 miles SSW 10.4 mph - N/A   Overcast
10:08 PM 41.0°F 39.2°F 93% 29.86 in 10.0 miles SW 11.5 mph - N/A   Overcast
10:53 PM 41.0°F 39.9°F 96% 29.89 in 10.0 miles SW 12.7 mph - N/A   Overcast
11:53 PM 42.1°F 39.0°F 89% 29.90 in 10.0 miles SW 17.3 mph - N/A   Overcast
Moon Phase
Dec. 26 Dec. 28 Jan. 04 Jan. 11 Jan. 18
Sunrise:07:58 AM (PST) Moon Rise:03:28 PM (PST)12/26
Sunset:04:28 PM (PST) Moon Set:06:24 AM (PST)12/26

Copyright © 2014 The Weather Underground, Inc.